Other Public Products
Issued by NWS Grand Forks, ND

Home | Current Version | Previous Version | Text Only | Print | Product List | Glossary Off
Versions: 1 2 3 4 5 6 7 8 9 10 11 12 13 14 15 16 17 18 19 20 21 22 23 24 25 26 27 28 29 30 31 32 33 34 35 36 37 38 39 40 41 42 43 44 45 46 47 48 49 50

000
FPUS83 KFGF 211531
OPUFGF
PRAIRIE TO PINES WEATHER ROUNDUP
NATIONAL WEATHER SERVICE EASTERN NORTH DAKOTA/GRAND FORKS ND
1000 AM CDT SUN SEP 21 2014

 **SATELLITE DATA USED TO AUGMENT SKY COVER AT AUTOMATED STATIONS**
 *****  WEATHER ACROSS EASTERN NORTH DAKOTA  *****

CITY           SKY/WX    TMP DP  RH WIND       PRES   REMARKS
GRAND FORKS    CLOUDY    53  51  93 NW13      30.20R
GRAND FORKS AF PTSUNNY   56  54  90 N14       30.21R
GRAND CITY NWS   N/A     54 N/A N/A NW5         N/A
BUXTON           N/A     56  55  95 NW9         N/A
DEVILS LAKE    MOSUNNY   57  46  67 N9        30.22R
FARGO          CLOUDY    55  50  83 N9        30.21R
WAHPETON ARPT  SUNNY     55  46  71 N12       30.21R
$$

 *****  WEATHER ACROSS CENTRAL AND WESTERN NORTH DAKOTA  *****

CITY           SKY/WX    TMP DP  RH WIND       PRES   REMARKS
JAMESTOWN      SUNNY     56  48  74 NW9       30.24R
BISMARCK       SUNNY     57  43  59 NW5       30.29R
MINOT          SUNNY     57  44  62 NW8       30.26R
MINOT AFB      SUNNY     56  46  68 NW9       30.26R
GARRISON         N/A     57  45  64 NW8       30.27R
WILLISTON      SUNNY     50  39  66 S5        30.30R
DICKINSON      SUNNY     57  41  55 W8        30.30R
HETTINGER      SUNNY     54  42  64 NW3       30.33R
$$

 *****  OTHER OBSERVATIONS NORTHEAST NORTH DAKOTA  *****

CITY           SKY/WX    TMP DP  RH WIND       PRES   REMARKS
WALHALLA         N/A     54  54 100 NW10G16   30.22R
LANGDON        PTSUNNY   57  50  77 NW13      30.22R
CAVALIER       CLOUDY    54  50  87 NW10      30.21R
GRAFTON        CLOUDY    54  54 100 N8        30.21R
CANDO          FAIR      59  50  72 N6        30.24S
FORT TOTTEN    NOT AVBL
ROLLA          FAIR      57  48  72 N10       30.25R
RUGBY          FAIR      54  48  82 NW5       30.25R
 ***** THE ABOVE OBSERVATIONS ARE NON NWS ARE NOT QUALITY
        CONTROLLED AND MAY MIS-REPORT RAIN FOR SNOW...
$$

 *****  OTHER OBSERVATIONS SOUTHEAST NORTH DAKOTA *****

CITY           SKY/WX    TMP DP  RH WIND       PRES   REMARKS
COOPERSTOWN    NOT AVBL
VALLEY CITY    FAIR      57  54  88 N10       30.24R
OAKES            N/A     57  52  82 N14       30.24R
GWINNER        SUNNY     59  50  72 NW9       30.25R
SHEYENNE NWR     N/A     58  51  77 N7        29.95
BUFFALO          N/A     58  48  70 N12         N/A
WYNDMERE         N/A     57  52  82 NW9         N/A
 ***** THE ABOVE OBSERVATIONS ARE NON NWS ARE NOT QUALITY
       CONTROLLED AND MAY MIS-REPORT RAIN FOR SNOW...
$$

  *****  WEATHER ACROSS NORTHERN MINNESOTA  *****

CITY           SKY/WX    TMP DP  RH WIND       PRES   REMARKS
FLAG ISLAND    PTSUNNY   54  48  82 NW8       30.15R
WARROAD        MOSUNNY   55  52  88 NW6       30.17R
ROSEAU         CLOUDY    54  48  82 NW8       30.18R
HALLOCK        CLOUDY    55  52  88 N7        30.19R
THF RVR FALLS  CLOUDY    54  50  87 NW9       30.19R
HALSTAD          N/A     53  50  90 N10         N/A
FOSSTON        CLOUDY    52  48  87 NW7       30.20R
BAUDETTE       MOSUNNY   54  49  83 N8        30.14R
WASKISH        CLOUDY    54  52  94 N6        30.16R
CROOKSTON      CLOUDY    52  52 100 N10       30.22R
$$
  *****  WEATHER ACROSS CENTRAL AND WEST MINNESOTA  *****

CITY           SKY/WX    TMP DP  RH WIND       PRES   REMARKS
BEMIDJI        CLOUDY    53  50  90 NW12      30.16R
PARK RAPIDS    CLOUDY    54  49  83 NW15      30.15R
WADENA         CLOUDY    54  50  87 NW9G16    30.17R
DETROIT LAKES  CLOUDY    52  50  93 N9        30.20R
MOORHEAD       CLOUDY    54  54 100 N12       30.22R
FERGUS FALLS   CLOUDY    54  50  87 N12       30.20R
ELBOW LAKE     CLOUDY    53  50  89 NW9G18    30.19R
MORRIS MN      SUNNY     54  52  94 N14       30.19R
STAPLES        CLOUDY    55  50  82 NW10      30.15R
WHEATON        SUNNY     55  48  76 NW13      30.23R
$$
  *****  WEATHER ELSEWHERE ACROSS MINNESOTA  *****

CITY           SKY/WX    TMP DP  RH WIND       PRES   REMARKS
DULUTH         MOSUNNY   56  45  66 N13G21    30.06R
INTRNTL FALLS  SUNNY     52  44  74 NE7       30.13R
ELY            MOSUNNY   48  39  71 NE7G16    30.09R
CLOQUET        PTSUNNY   54  46  76 NW12G17   30.08R
BRAINERD       MOSUNNY   54  47  77 N12       30.14R
HIBBING        PTSUNNY   55  47  74 NW16      30.10R
ALEXANDRIA     CLOUDY    53  50  89 NW12      30.18R
SAINT CLOUD    PTSUNNY   58  48  69 NW12      30.13R
MINNEAPOLIS    CLOUDY    55  47  74 NW17      30.11R
$$

  *****  WEATHER ACROSS SOUTH DAKOTA  *****

CITY           SKY/WX    TMP DP  RH WIND       PRES   REMARKS
SIOUX FALLS    SUNNY     60  47  61 N12       30.22R
BROOKINGS      NOT AVBL
WATERTOWN      SUNNY     57  48  72 NW13      30.22R
HURON          SUNNY     58  44  60 N10       30.26R
SISSETON         N/A     58  51  78 N13       30.21R
ABERDEEN       SUNNY     58  47  66 N9        30.26R
MITCHELL       SUNNY     60  46  59 N9        30.27R
PIERRE         SUNNY     59  42  53 NW10      30.29R
MOBRIDGE       SUNNY     54  44  69 NW9       30.27R
RAPID CITY     SUNNY     60  39  45 CALM      30.36R
$$

  *****  SOME WEATHER IN NEARBY STATES *****

CITY           SKY/WX    TMP DP  RH WIND       PRES   REMARKS
GLASGOW MT     SUNNY     52  40  63 CALM      30.29R
GREAT FALLS MT SUNNY     53  44  71 CALM      30.23F
CHEYENNE WY    CLOUDY    57  37  47 S9        30.42S
SCOTTSBLUFF NE CLOUDY    59  43  55 E5        30.39R
OMAHA NE       SUNNY     63  47  55 NW15      30.22R
DES MOINES IA  SUNNY     64  48  56 N21G29    30.11R
DAVENPORT IA   PTSUNNY   61  48  62 NW21G33   30.00R
CHICAGO IL     CLOUDY    61  50  67 NW16G24   29.85R
EAU CLAIRE WI  MOSUNNY   58  47  66 N16G23    30.02R
LA CROSSE WI   CLOUDY    59  51  75 NW13      29.98R
$$

  *****  SOME NATIONAL WEATHER *****

CITY           SKY/WX    TMP DP  RH WIND       PRES   REMARKS
LA GUARDIA NY  PTSUNNY   72  66  83 NE5       29.82F
RALEIGH NC     PTSUNNY   74  59  59 NW7       29.91S
ATLANTA GA     MOSUNNY   79  62  56 W12       30.07S
NEW ORLEANS LA MOSUNNY   82  70  66 NE12      30.03R
OKLAHOMA CITY  PTSUNNY   81  67  62 NW7       30.13R
ALBUQUERQUE NM MOSUNNY   70  55  59 E21       30.31R
SALT LAKE CITY CLOUDY    68  53  58 SE8       30.16R
LOS ANGELES CA PTSUNNY   69  62  78 CALM      29.99R
BOISE ID       PTSUNNY   62  46  55 E3        30.04R
SEATTLE WA     MOSUNNY   57  54  89 S3        29.89R
$$

*** WEATHER ACROSS MANITOBA...SASKATCHEWAN AND ONTARIO ***
                ***ONTARIO***

CITY           SKY/WX    TMP DP  RH WIND       PRES   REMARKS
GERALDTON      DRIZZLE  N/A N/A N/A N10         N/A
THUNDER BAY    PTSUNNY   48  37  66 N10G17    30.04R
SIOUX LOOKOUT  MOSUNNY   48  41  76 N5        30.11R
TORONTO        PTSUNNY   72  63  73 SW21      29.55R
BIG TROUT LK   CLOUDY    39  36  87 NW5       30.08R
PICKLE LAKE    PTSUNNY   41  34  75 NW7       30.08R
DRYDEN         SUNNY     48  39  71 NW5       30.13R
KENORA         PTSUNNY   50  48  93 N2        30.15R
$$
                *** MANITOBA***

CITY           SKY/WX    TMP DP  RH WIND       PRES   REMARKS
BRANDON        MOSUNNY   55  50  82 NW7       30.23R
DAUPHIN        SUNNY     55  48  76 W9        30.20R
ISLAND LAKE    MOSUNNY   50  43  76 CALM      30.11R
PILOT MOUND    NOT AVBL
THE PAS        MOSUNNY   52  48  87 SW5       30.11S
THOMPSON       CLOUDY    41  41 100 SW6       30.04S FOG
WINNIPEG       PTSUNNY   54  52  94 N10       30.20R
LYNN LAKE      SUNNY     50  46  87 SW9G17    29.94F
CHURCHILL      LGT RAIN  36  34  93 S7        29.90F
GILLAM         PTSUNNY   37  37 100 S7        30.01F
$$
                ***SASKATCHEWAN***

CITY           SKY/WX    TMP DP  RH WIND       PRES   REMARKS
ESTEVAN        SUNNY     50  45  81 W3        30.28R
KINDERSLEY     SUNNY     52  43  71 S8        30.19S
LLOYDMINSTER   MOSUNNY   57  43  58 SW9       30.09R
PRINCE ALBERT  MOSUNNY   50  45  81 SW6       30.12
REGINA         SUNNY     52  45  76 W7        30.25R


USA.gov is the U.S. government's official web portal to all federal, state and local government web resources and services.